Tracking 35274 objects as of 11-Sep-2026
HD Live streaming from Space Station
objects crossing your sky now

COSMOS 1662 DEB


COSMOS 1662 DEB is no longer on orbit


NORAD ID: 17137
Int'l Code: 1985-050AB
Launch date: June 19, 1985
Source: Commonwealth of Independent States (former USSR) (CIS)
Launch site: TYURATAM MISSILE AND SPACE COMPLEX (TTMTR)
Decay date: 1987-10-29

Note: This is SATELLITE DEBRIS
Your satellite tracking list
Your tracking list is empty




NASA's NSSDC Master Catalog

Two Line Element Set (TLE):
1 17137U 85050 AB 87300.88761293  .03270910 +24591-5 +80108-2 0  9996
2 17137 065.8697 218.2247 0018881 204.3719 156.2099 15.95449327131769
Source of the keplerian elements: AFSPC